Home   Weather   Cheongju   Past weeks

Flag for South Korea Past Weather in Cheongju, South Korea — Yesterday and Last 2 Weeks

Now
25 °F

Passing clouds.


Feels Like: 25 °F
Forecast: 17 / 42 °F
Wind: 1 mph from Northwest

Location: Chongju Ab

Current Time: Jan 18, 2017 at 4:46:08 am

Latest Report: Jan 18, 2017 at 4:00 am


Visibility: 5 mi

Pressure: 30.48 "Hg

Humidity: 80%

Dew Point: 19 °F

Location of CheongjuLocation

Past Weather in Cheongju — Graph

°F

Cheongju Temperature Yesterday

Maximum temperature yesterday: 37 °F (at 3:00 pm)
Minimum temperature yesterday: 10 °F (at 4:00 am)
Average temperature yesterday: 22 °F

High & Low Weather Summary for the Past Weeks

 TemperatureHumidityPressure
High55 °F (Jan 8, 4:00 pm)100% (Jan 3, 7:00 am)30.48 "Hg (Jan 3, 7:00 am)
Low5 °F (Jan 15, 7:00 am)21% (Jan 14, 2:00 pm)29.86 "Hg (Jan 8, 2:00 pm)
Average30 °F69%30.21 "Hg
* Reported Jan 3 3:00 am — Jan 18 3:00 am, Cheongju, Weather by CustomWeather, © 2017

Note: Actual official high and low records may vary slightly from our data, if they occured in-between our weather recording intervals... More about our weather records

Advertising

Cheongju Weather History for the Previous 24 Hours

Scroll right to see more
 ConditionsComfort  
Time TempWeatherWind HumidityBarometerVisibility
3:00 am
Wed, Jan 18
23 °FPassing clouds.1 mph74%30.48 "Hg5 mi
2:00 am21 °FPassing clouds.2 mph80%30.48 "Hg5 mi
1:00 am19 °FPassing clouds.1 mph79%30.48 "Hg5 mi
12:00 am21 °FClear.2 mph80%30.48 "Hg5 mi
11:00 pm
Tue, Jan 17
23 °FClear.1 mph68%30.48 "Hg6 mi
10:00 pm23 °FClear.2 mph74%30.45 "Hg6 mi
9:00 pm23 °FClear.2 mph68%30.45 "Hg6 mi
8:00 pm25 °FClear.3 mph63%30.42 "Hg6 mi
7:00 pm27 °FClear.2 mph54%30.42 "Hg10 mi
6:00 pm30 °FClear.1 mph47%30.42 "Hg10 mi
5:00 pm36 °FSunny.2 mph35%30.42 "Hg10 mi
4:00 pm37 °FSunny.2 mph33%30.42 "Hg10 mi
3:00 pm37 °FSunny.5 mph30%30.45 "Hg10 mi
2:00 pm36 °FSunny.3 mph38%30.45 "Hg10 mi
1:00 pm32 °FSunny.5 mph44%30.45 "Hg10 mi
12:00 pm30 °FClear.2 mph51%30.48 "Hg6 mi
11:00 am27 °FClear.2 mph69%30.48 "Hg6 mi
10:00 am21 °FSunny.2 mph74%30.48 "Hg10 mi
9:00 am16 °FSunny.2 mph79%30.48 "Hg10 mi
8:00 am10 °FSunny.1 mph92%30.48 "Hg10 mi
7:00 am10 °FClear.3 mph85%30.48 "Hg10 mi
6:00 am10 °FClear.2 mph85%30.48 "Hg10 mi
5:00 am12 °FClear.1 mph85%30.48 "Hg10 mi
4:00 am10 °FClear.2 mph85%30.45 "Hg10 mi
Weather by CustomWeather, © 2017

See weather overviewHow to use our weather pages